[[{"header":{"parameterUnit":"m.s-1","parameterCategory":1,"la1":30.2991,"la2":30.254,"lo1":-89.0895,"lo2":-89.0444,"dy":0.0017,"dx":0.0017,"nx":28,"ny":28,"refTime":"2025-09-04T03:00:00:Z","depth":0,"parameterNumber":2,"parameterNumberName":"U-component_of_WINDS"},"data":[0,0,0,0,0,0,0,0,0,0,0,0,0,0,0,0,0,0,0,0,0,0,0,0,0,0,0,0,0,0,0,0,0,0,0,0,0,0,0,0,0,0,0,0,0,0,0,0,0,0,0,0,0,0,0,0,0,0,-1.3073,-1.3073,0,-1.3109,-1.3109,-1.311,-1.3084,-1.3083,-1.3081,-1.308,-1.3118,-1.312,-1.3122,0,0,0,0,0,0,0,0,0,0,0,0,0,-1.2983,-1.2985,-1.3073,-1.3073,-1.3074,-1.3109,-1.3109,-1.311,-1.3084,-1.3083,-1.3081,-1.308,-1.3117,-1.312,-1.3122,0,0,0,0,0,0,0,0,0,0,0,0,0,-1.3021,-1.2986,-1.3073,-1.3065,-1.3065,-1.3109,-1.3109,-1.311,-1.3084,-1.3082,-1.3081,-1.3079,-1.3117,-1.312,-1.3123,-1.3176,0,0,-1.3132,-1.3133,0,0,0,0,0,0,0,0,-1.3019,-1.3024,-1.3066,-1.3066,-1.3065,-1.309,-1.3091,-1.3132,-1.3085,-1.3077,-1.308,-1.3078,-1.311,-1.3114,-1.3124,-1.3178,-1.318,-1.3132,-1.3134,-1.3136,-1.3137,0,0,0,0,0,0,0,-1.3016,-1.3023,-1.3087,-1.3066,-1.3066,-1.306,-1.3064,-1.3099,-1.3103,-1.3077,-1.3076,-1.308,-1.311,-1.3121,-1.3125,-1.318,-1.3132,-1.3135,-1.3137,-1.3138,-1.3281,-1.3283,0,0,0,0,0,0,-1.3014,-1.3021,-1.3086,-1.3088,-1.3037,-1.3063,-1.3067,-1.3084,-1.3102,-1.3103,-1.3082,-1.3079,-1.3117,-1.3121,-1.3126,-1.3191,-1.3136,-1.3139,-1.314,-1.3279,-1.3281,-1.3283,0,0,0,0,0,0,-1.3012,-1.302,-1.3085,-1.3054,-1.3062,-1.3067,-1.3086,-1.3086,-1.3097,-1.3105,-1.3106,-1.3093,-1.3116,-1.3122,-1.3164,-1.3192,-1.314,-1.3143,-1.3277,-1.328,-1.3282,-1.3321,0,0,0,0,0,0,-1.301,-1.302,-1.304,-1.3055,-1.3063,-1.3122,-1.3087,-1.3087,-1.3102,-1.3099,-1.3116,-1.3117,-1.3115,-1.316,-1.3167,-1.3195,-1.3145,-1.3274,-1.3278,-1.3281,-1.3317,-1.3324,-1.3331,0,0,0,0,0,-1.3007,-1.3049,-1.3041,-1.3049,-1.3089,-1.3123,-1.3129,-1.3125,-1.3105,-1.3125,-1.3131,-1.3117,-1.3187,-1.3164,-1.3173,-1.3202,-1.3273,-1.3277,-1.3281,-1.3314,-1.3323,-1.3331,0,0,0,0,0,0,-1.3038,-1.3051,-1.3042,-1.3091,-1.3106,-1.3119,-1.3145,-1.3134,-1.3156,-1.3152,-1.3146,-1.3151,-1.3195,-1.3203,-1.3177,-1.3255,-1.3227,-1.3233,-1.3249,-1.3258,-1.3264,-1.3262,-1.3148,0,0,0,0,0,-1.3051,-1.3078,-1.3087,-1.3129,-1.3137,-1.314,-1.3155,-1.315,-1.3166,-1.3173,-1.3181,-1.3198,-1.3224,-1.3241,-1.3265,-1.3318,-1.3321,-1.3342,-1.3349,-1.3355,-1.336,-1.3389,-1.3399,-1.3298,-1.3298,-1.3298,0,0,-1.3077,-1.3087,-1.3105,-1.3136,-1.3147,-1.3176,-1.3146,-1.3177,-1.3198,-1.3178,-1.3218,-1.3225,-1.3243,-1.3291,-1.3313,-1.3299,-1.3389,-1.336,-1.3365,-1.3367,-1.3395,-1.3404,-1.3413,-1.3301,-1.33,-1.33,0,0,-1.314,-1.315,-1.3186,-1.3198,-1.3216,-1.3217,-1.3226,-1.324,-1.3244,-1.3285,-1.3271,-1.3296,-1.334,-1.3354,-1.3366,-1.3434,-1.3423,-1.3442,-1.3479,-1.3507,-1.3515,-1.3522,-1.3547,-1.3556,-1.3448,-1.3448,-1.3448,0,-1.317,-1.3212,-1.3206,-1.3238,-1.3253,-1.3236,-1.3273,-1.3285,-1.331,-1.332,-1.3304,-1.336,-1.3371,-1.3422,-1.3439,-1.3449,-1.346,-1.3441,-1.3515,-1.3522,-1.3528,-1.3552,-1.3561,-1.345,-1.345,-1.345,-1.345,0,-1.3249,-1.3278,-1.3305,-1.333,-1.3347,-1.3382,-1.3382,-1.34,-1.3394,-1.3397,-1.3439,-1.3452,-1.3478,-1.349,-1.3485,-1.3541,-1.3532,-1.3515,-1.3487,-1.354,-1.3563,-1.3571,-1.3454,-1.3453,-1.3452,-1.3452,0,0,-1.3333,-1.3353,-1.3364,-1.3375,-1.3393,-1.3415,-1.3449,-1.3475,-1.3491,-1.3509,-1.3538,-1.3576,-1.3561,-1.3576,-1.3572,-1.3597,-1.365,-1.3577,-1.3578,-1.3591,-1.3714,-1.3727,-1.3737,-1.3642,-1.3644,-1.3645,-1.3713,0,-1.3397,-1.3456,-1.3452,-1.3507,-1.3535,-1.3519,-1.3548,-1.3563,-1.3567,-1.3591,-1.3595,-1.3623,-1.3601,-1.3609,-1.3633,-1.3639,-1.3675,-1.3634,-1.367,-1.3671,-1.3667,-1.3749,-1.3762,-1.3825,-1.3721,-1.3723,-1.3724,0,-1.348,-1.35,-1.3558,-1.3573,-1.3584,-1.3611,-1.3634,-1.3657,-1.3674,-1.3675,-1.3691,-1.3683,-1.3718,-1.3688,-1.3737,-1.3709,-1.3723,-1.3728,-1.373,-1.3734,-1.3701,-1.3755,-1.3845,-1.3854,-1.3737,-1.3736,-1.3735,0,-1.3536,-1.3578,-1.3618,-1.3628,-1.3646,-1.3665,-1.3673,-1.3688,-1.3704,-1.3725,-1.3735,-1.376,-1.3773,-1.3793,-1.3792,-1.377,-1.3841,-1.3811,-1.3844,-1.3844,-1.386,-1.3859,-1.3954,-1.3868,-1.3868,-1.3868,-1.3868,0,-1.3608,-1.3645,-1.3644,-1.3669,-1.371,-1.3704,-1.3745,-1.3751,-1.3764,-1.3791,-1.3778,-1.3803,-1.38,-1.3826,-1.3825,-1.3865,-1.3872,-1.3874,-1.3874,-1.3876,-1.3875,-1.3885,-1.3881,-1.387,-1.387,-1.3869,-1.3869,0,-1.3679,-1.3679,-1.3722,-1.3735,-1.3739,-1.3769,-1.378,-1.3804,-1.3807,-1.384,-1.3848,-1.3853,-1.3882,-1.3882,-1.3916,-1.3916,-1.3965,-1.396,-1.396,-1.3959,-1.3992,-1.3989,-1.4097,-1.4111,-1.4015,-1.4016,-1.4017,0,-1.3725,-1.3753,-1.3769,-1.3785,-1.3795,-1.3822,-1.3838,-1.3834,-1.3851,-1.3872,-1.3894,-1.3922,-1.3944,-1.3991,-1.3998,-1.4024,-1.4019,-1.4055,-1.4023,-1.4024,-1.4021,-1.4019,-1.4022,-1.4062,-1.4063,-1.4064,-1.4064,0,-1.3808,-1.3807,-1.3831,-1.3855,-1.3874,-1.3893,-1.391,-1.3924,-1.3923,-1.3943,-1.3972,-1.399,-1.4024,-1.4052,-1.4077,-1.4086,-1.4075,-1.4074,-1.4083,-1.4086,-1.4085,-1.4087,-1.3978,-1.4072,-1.4071,-1.4071,-1.407,-1.407,-1.3869,-1.3893,-1.3908,-1.3935,-1.3947,-1.3963,-1.3987,-1.3992,-1.4016,-1.4044,-1.404,-1.4073,-1.4089,-1.4122,-1.4133,-1.4159,-1.4146,-1.4159,-1.4163,-1.4166,-1.417,-1.408,-1.4163,-1.4163,-1.4163,-1.4163,-1.4162,0,-1.3952,-1.3961,-1.3985,-1.401,-1.4031,-1.4018,-1.4036,-1.4055,-1.4084,-1.41,-1.4122,-1.4156,-1.4184,-1.4192,-1.4219,-1.4238,-1.4234,-1.4245,-1.4244,-1.4247,-1.4179,-1.4169,-1.4248,-1.4248,-1.4248,-1.4248,-1.4248,-1.4248,-1.3998,-1.4038,-1.4039,-1.4085,-1.4094,-1.4126,-1.4137,-1.4153,-1.4165,-1.4204,-1.4226,-1.4231,-1.4244,-1.4272,-1.4296,-1.4298,-1.4309,-1.4323,-1.4323,-1.426,-1.4251,-1.4243,-1.4234,-1.4325,-1.4325,-1.4388,-1.4389,-1.4389]},{"header":{"parameterUnit":"m.s-1","parameterCategory":1,"la1":30.2991,"la2":30.254,"lo1":-89.0895,"lo2":-89.0444,"dy":0.0017,"dx":0.0017,"nx":28,"ny":28,"refTime":"2025-09-04T03:00:00:Z","depth":0,"parameterNumber":3,"parameterNumberName":"V-component_of_WINDS"},"data":[0,0,0,0,0,0,0,0,0,0,0,0,0,0,0,0,0,0,0,0,0,0,0,0,0,0,0,0,0,0,0,0,0,0,0,0,0,0,0,0,0,0,0,0,0,0,0,0,0,0,0,0,0,0,0,0,0,0,3.3541,3.3541,0,3.35,3.3499,3.3499,3.3432,3.3431,3.343,3.3429,3.3386,3.3386,3.3386,0,0,0,0,0,0,0,0,0,0,0,0,0,3.3564,3.3564,3.3541,3.3541,3.354,3.35,3.3499,3.3499,3.3433,3.3431,3.343,3.3428,3.3386,3.3386,3.3386,0,0,0,0,0,0,0,0,0,0,0,0,0,3.3541,3.3564,3.3542,3.3503,3.3499,3.35,3.3499,3.3498,3.3433,3.3431,3.3429,3.3428,3.3386,3.3386,3.3386,3.3423,0,0,3.3386,3.3386,0,0,0,0,0,0,0,0,3.3543,3.3541,3.3509,3.3505,3.3501,3.3469,3.3491,3.3473,3.3433,3.3458,3.3429,3.3427,3.3416,3.3413,3.3409,3.3421,3.3419,3.3386,3.3386,3.3386,3.3386,0,0,0,0,0,0,0,3.3544,3.3542,3.3525,3.3508,3.3504,3.3487,3.3482,3.3488,3.3447,3.3456,3.3451,3.3447,3.3413,3.3409,3.3408,3.3418,3.3386,3.3386,3.3386,3.3386,3.3455,3.3457,0,0,0,0,0,0,3.3552,3.3544,3.3526,3.3524,3.3518,3.3488,3.3482,3.3481,3.3447,3.344,3.3448,3.3444,3.341,3.3408,3.3406,3.3444,3.3386,3.3386,3.3386,3.3453,3.3455,3.3457,0,0,0,0,0,0,3.3552,3.3551,3.3528,3.3532,3.3528,3.349,3.3489,3.3481,3.3478,3.3441,3.3434,3.3452,3.3409,3.3406,3.3418,3.3442,3.3386,3.3386,3.3451,3.3454,3.3456,3.3522,0,0,0,0,0,0,3.3553,3.3551,3.3565,3.3533,3.3528,3.3541,3.3491,3.3482,3.3478,3.3471,3.3443,3.3436,3.3407,3.3419,3.3418,3.3441,3.3386,3.3449,3.3452,3.3456,3.3518,3.3527,3.3535,0,0,0,0,0,3.3554,3.3585,3.3566,3.3564,3.3544,3.3543,3.354,3.3505,3.348,3.3493,3.3469,3.3437,3.344,3.3421,3.342,3.3442,3.3447,3.3451,3.3455,3.3514,3.3525,3.3535,0,0,0,0,0,0,3.3621,3.3581,3.3558,3.358,3.3565,3.3532,3.3547,3.3519,3.3511,3.3505,3.3463,3.3457,3.3475,3.346,3.3439,3.3475,3.3438,3.3442,3.3483,3.3494,3.3502,3.3504,3.3386,0,0,0,0,0,3.3638,3.3641,3.3605,3.3628,3.3622,3.3586,3.3584,3.3559,3.3542,3.3535,3.3513,3.3498,3.3494,3.3494,3.3489,3.3516,3.3508,3.3531,3.354,3.3547,3.355,3.3561,3.3571,3.3471,3.3471,3.3471,0,0,3.3674,3.3652,3.3656,3.3641,3.3626,3.3629,3.3581,3.3587,3.3588,3.3536,3.3546,3.3529,3.3509,3.3529,3.3536,3.3517,3.3576,3.3552,3.3558,3.3557,3.3567,3.3576,3.3584,3.3474,3.3473,3.3473,0,0,3.374,3.3725,3.3741,3.3727,3.3706,3.3682,3.3686,3.3656,3.3643,3.3652,3.3613,3.3614,3.361,3.3597,3.359,3.3651,3.362,3.3651,3.3694,3.3706,3.3714,3.372,3.374,3.3748,3.3655,3.3655,3.3655,0,3.3787,3.379,3.3753,3.3761,3.3754,3.3707,3.3723,3.3712,3.369,3.3687,3.3666,3.3659,3.3643,3.3657,3.3672,3.3669,3.3671,3.3653,3.3716,3.3722,3.3728,3.3746,3.3754,3.3659,3.3658,3.3658,3.3657,0,3.3848,3.3851,3.3867,3.3846,3.3842,3.3854,3.3818,3.3819,3.3794,3.3772,3.3781,3.3759,3.3749,3.3751,3.3727,3.3762,3.375,3.3723,3.3686,3.3741,3.3758,3.3765,3.3664,3.3663,3.3661,3.3661,0,0,3.3954,3.3913,3.3919,3.3909,3.3882,3.3883,3.3893,3.3882,3.3882,3.3869,3.3875,3.3873,3.3847,3.3839,3.3813,3.3823,3.387,3.3795,3.3793,3.3808,3.3905,3.3925,3.3934,3.3851,3.3852,3.3853,3.3906,0,3.4013,3.4027,3.3994,3.4015,3.4016,3.3972,3.3979,3.3964,3.3943,3.3941,3.3919,3.3917,3.3884,3.3879,3.3887,3.3863,3.3889,3.3859,3.3854,3.3855,3.3859,3.3942,3.3963,3.4014,3.3913,3.3914,3.3915,0,3.4084,3.4074,3.4095,3.4066,3.4065,3.4073,3.406,3.4059,3.4039,3.4024,3.4015,3.3984,3.3991,3.3956,3.3963,3.3943,3.394,3.3928,3.3929,3.3926,3.3887,3.394,3.403,3.4037,3.3925,3.3924,3.3923,0,3.4157,3.4149,3.416,3.4153,3.412,3.4126,3.4112,3.4091,3.4086,3.4075,3.4071,3.4061,3.4055,3.4048,3.4015,3.3993,3.4026,3.3989,3.4012,3.4013,3.402,3.4019,3.4109,3.4021,3.402,3.402,3.402,0,3.4226,3.424,3.4192,3.4199,3.4214,3.4176,3.4191,3.4173,3.4154,3.4156,3.4118,3.412,3.4078,3.4075,3.405,3.4059,3.4057,3.4044,3.4036,3.4046,3.4048,3.4042,3.4037,3.4022,3.4022,3.4021,3.4021,0,3.4309,3.4278,3.4287,3.4255,3.4247,3.4259,3.423,3.4235,3.4212,3.4215,3.4214,3.4178,3.4173,3.414,3.4128,3.4111,3.4128,3.4115,3.4135,3.4129,3.4154,3.4151,3.4242,3.4251,3.4158,3.4159,3.416,0,3.4354,3.4364,3.4332,3.4331,3.4319,3.4317,3.4312,3.4275,3.4271,3.4249,3.4256,3.4248,3.4239,3.4234,3.4206,3.4196,3.4181,3.4214,3.4179,3.4188,3.4179,3.4178,3.4178,3.422,3.4222,3.4223,3.4223,0,3.4437,3.4421,3.4415,3.4404,3.4398,3.4388,3.4375,3.4376,3.4334,3.4332,3.4326,3.432,3.4307,3.4299,3.4284,3.4269,3.4239,3.4235,3.4239,3.4248,3.4258,3.4251,3.4152,3.4232,3.4231,3.4231,3.423,3.423,3.4501,3.4507,3.4485,3.448,3.4466,3.4455,3.4457,3.4434,3.4429,3.4415,3.4394,3.4391,3.437,3.4347,3.4334,3.4331,3.4314,3.4321,3.4322,3.4324,3.4328,3.426,3.4328,3.4328,3.4328,3.4328,3.4327,0,3.458,3.4564,3.4559,3.4542,3.4537,3.451,3.4494,3.4491,3.4489,3.4473,3.4465,3.4458,3.4449,3.4421,3.441,3.4412,3.4398,3.441,3.4409,3.4405,3.4345,3.4342,3.4422,3.4422,3.4422,3.4422,3.4422,3.4422,3.462,3.4629,3.461,3.4611,3.4594,3.4591,3.4584,3.4573,3.4559,3.4553,3.4546,3.4527,3.4506,3.4492,3.4483,3.4475,3.4471,3.4488,3.4475,3.4419,3.441,3.4401,3.4398,3.4488,3.4488,3.4535,3.4535,3.4536]}]]